This is the latest recevied weather packets stored in our database for station/object OE3UKW. If no packets are shown the sender has not sent any weather packets the latest 10 day(s).
| Time | Temp. | Humidity | Pressure | Rain* | Wind** | Luminosity | Snow |
|---|---|---|---|---|---|---|---|
| 1777788671 | 15.56° C | 42% | 1020.4 hPa | 0 mm | - | 244 W/m² | - |
| 1777788071 | 15° C | 45% | 1020.3 hPa | 0 mm | - | 264 W/m² | - |
| 1777787471 | 13.89° C | 50% | 1020.2 hPa | 0 mm | - | 243 W/m² | - |
| 1777786871 | 13.33° C | 53% | 1020.4 hPa | 0 mm | - | 207 W/m² | - |
| 1777786271 | 11.67° C | 56% | 1020.5 hPa | 0 mm | - | 223 W/m² | - |
| 1777785671 | 11.11° C | 58% | 1020.4 hPa | 0 mm | - | 215 W/m² | - |
| 1777785071 | 10° C | 61% | 1020.5 hPa | 0 mm | - | 185 W/m² | - |
| 1777784471 | 8.89° C | 66% | 1020.4 hPa | 0 mm | - | 143 W/m² | - |
| 1777783871 | 7.78° C | 69% | 1020.3 hPa | 0 mm | - | 104 W/m² | - |
| 1777783270 | 6.67° C | 70% | 1020.3 hPa | 0 mm | - | 93 W/m² | - |
| 1777782671 | 5.56° C | 70% | 1020.1 hPa | 0 mm | - | 74 W/m² | - |
| 1777782070 | 5° C | 69% | 1020.1 hPa | 0 mm | - | 53 W/m² | - |
| 1777781470 | 4.44° C | 69% | 1019.9 hPa | 0 mm | - | 33 W/m² | - |
| 1777780871 | 4.44° C | 68% | 1019.8 hPa | 0 mm | - | 16 W/m² | - |
| 1777780271 | 3.89° C | 68% | 1019.9 hPa | 0 mm | - | 11 W/m² | - |
| 1777779670 | 3.89° C | 67% | 1019.9 hPa | 0 mm | - | 7 W/m² | - |
| 1777779070 | 3.89° C | 67% | 1019.8 hPa | 0 mm | - | 0 W/m² | - |
| 1777778470 | 3.89° C | 67% | 1019.9 hPa | 0 mm | - | 0 W/m² | - |
| 1777777871 | 3.89° C | 67% | 1019.8 hPa | 0 mm | - | 0 W/m² | - |
| 1777777270 | 4.44° C | 66% | 1019.8 hPa | 0 mm | - | 0 W/m² | - |
| 1777776670 | 4.44° C | 67% | 1019.7 hPa | 0 mm | - | 0 W/m² | - |
| 1777776070 | 4.44° C | 67% | 1019.7 hPa | 0 mm | - | 0 W/m² | - |
| 1777775470 | 4.44° C | 67% | 1019.8 hPa | 0 mm | - | 0 W/m² | - |
| 1777774870 | 4.44° C | 67% | 1019.8 hPa | 0 mm | - | 0 W/m² | - |
| 1777774270 | 4.44° C | 67% | 1019.7 hPa | 0 mm | - | 0 W/m² | - |
* Rain latest hour (hover to see other rain measurements)
** Current wind speed in m/s (hover to see current wind gust speed)